| time (UTC) | temp C | wind direction | speed KPH | gust KPH | rain 1hr cm | rain 24hr cm | rain mn cm | humidity % | barometer mb |
| 20260508044505 | 24 | 298 | 8.0 | 25.7 | 0.00 | 0.00 | 0.00 | 24 | 996.8 |
| 20260508043505 | 24 | 298 | 8.0 | 29.0 | 0.00 | 0.00 | 0.00 | 24 | 996.7 |
| 20260508043005 | 24 | 296 | 6.4 | 24.1 | 0.00 | 0.00 | 0.00 | 24 | 996.8 |
| 20260508042004 | 24 | 296 | 9.7 | 32.2 | 0.00 | 0.00 | 0.00 | 23 | 996.7 |
| 20260508041505 | 24 | 299 | 14.5 | 32.2 | 0.00 | 0.00 | 0.00 | 23 | 996.6 |
| 20260508041005 | 24 | 304 | 14.5 | 32.2 | 0.00 | 0.00 | 0.00 | 23 | 996.6 |
| 20260508040505 | 24 | 310 | 12.9 | 33.8 | 0.00 | 0.00 | 0.00 | 26 | 996.6 |
| 20260508040005 | 24 | 304 | 11.3 | 33.8 | 0.00 | 0.00 | 0.00 | 23 | 996.5 |
| 20260508035505 | 24 | 306 | 11.3 | 33.8 | 0.00 | 0.00 | 0.00 | 23 | 996.4 |
| 20260508035005 | 24 | 309 | 11.3 | 33.8 | 0.00 | 0.00 | 0.00 | 23 | 996.4 |
| 20260508034505 | 25 | 302 | 11.3 | 35.4 | 0.00 | 0.00 | 0.00 | 23 | 996.3 |
| 20260508033505 | 25 | 305 | 8.0 | 30.6 | 0.00 | 0.00 | 0.00 | 22 | 996.2 |
| 20260508033005 | 25 | 301 | 8.0 | 30.6 | 0.00 | 0.00 | 0.00 | 22 | 996.1 |
| 20260508032505 | 25 | 300 | 6.4 | 27.4 | 0.00 | 0.00 | 0.00 | 22 | 996.1 |
| 20260508032004 | 25 | 312 | 6.4 | 32.2 | 0.00 | 0.00 | 0.00 | 22 | 996.1 |
| 20260508031504 | 25 | 308 | 9.7 | 35.4 | 0.00 | 0.00 | 0.00 | 22 | 996.1 |
| 20260508031005 | 25 | 297 | 9.7 | 35.4 | 0.00 | 0.00 | 0.00 | 22 | 996.1 |
| 20260508030505 | 25 | 299 | 6.4 | 27.4 | 0.00 | 0.00 | 0.00 | 22 | 996.1 |
| 20260508030005 | 25 | 304 | 6.4 | 27.4 | 0.00 | 0.00 | 0.00 | 22 | 995.9 |
| 20260508025004 | 25 | 296 | 4.8 | 35.4 | 0.00 | 0.00 | 0.00 | 22 | 995.6 |
| 20260508024504 | 26 | 291 | 4.8 | 27.4 | 0.00 | 0.00 | 0.00 | 22 | 995.6 |
| 20260508024004 | 26 | 298 | 4.8 | 25.7 | 0.00 | 0.00 | 0.00 | 22 | 995.6 |
| 20260508023504 | 26 | 298 | 3.2 | 20.9 | 0.00 | 0.00 | 0.00 | 21 | 995.6 |
| 20260508022505 | 26 | 284 | 4.8 | 19.3 | 0.00 | 0.00 | 0.00 | 21 | 995.5 |
| 20260508022006 | 26 | 295 | 4.8 | 25.7 | 0.00 | 0.00 | 0.00 | 21 | 995.5 |
| 20260508021505 | 26 | 282 | 4.8 | 25.7 | 0.00 | 0.00 | 0.00 | 20 | 995.4 |
| 20260508021005 | 27 | 285 | 3.2 | 17.7 | 0.00 | 0.00 | 0.00 | 20 | 995.3 |
| 20260508020504 | 27 | 297 | 4.8 | 25.7 | 0.00 | 0.00 | 0.00 | 20 | 995.2 |
| 20260508020004 | 27 | 292 | 6.4 | 25.7 | 0.00 | 0.00 | 0.00 | 19 | 995.1 |
| 20260508015505 | 27 | 299 | 6.4 | 24.1 | 0.00 | 0.00 | 0.00 | 18 | 995.1 |
| 20260508015004 | 28 | 304 | 6.4 | 24.1 | 0.00 | 0.00 | 0.00 | 17 | 995.1 |
| 20260508014505 | 28 | 292 | 3.2 | 19.3 | 0.00 | 0.00 | 0.00 | 12 | 995.1 |
| 20260508014005 | 28 | 289 | 3.2 | 9.7 | 0.00 | 0.00 | 0.00 | 12 | 995.0 |
| 20260508013505 | 29 | 295 | 1.6 | 9.7 | 0.00 | 0.00 | 0.00 | 11 | 995.0 |
| 20260508013005 | 29 | 293 | 1.6 | 8.0 | 0.00 | 0.00 | 0.00 | 11 | 994.9 |
| 20260508012505 | 29 | 298 | 3.2 | 19.3 | 0.00 | 0.00 | 0.00 | 11 | 994.9 |
| 20260508012005 | 29 | 298 | 3.2 | 19.3 | 0.00 | 0.00 | 0.00 | 11 | 994.8 |
| 20260508011505 | 29 | 300 | 3.2 | 14.5 | 0.00 | 0.00 | 0.00 | 11 | 994.8 |
| 20260508011005 | 29 | 300 | 3.2 | 14.5 | 0.00 | 0.00 | 0.00 | 11 | 994.7 |
| 20260508010505 | 29 | 296 | 4.8 | 17.7 | 0.00 | 0.00 | 0.00 | 10 | 994.7 |
| 20260508010004 | 30 | 296 | 3.2 | 17.7 | 0.00 | 0.00 | 0.00 | 11 | 994.7 |
| 20260508004505 | 30 | 306 | 6.4 | 19.3 | 0.00 | 0.00 | 0.00 | 11 | 994.6 |
| 20260508004005 | 30 | 315 | 4.8 | 19.3 | 0.00 | 0.00 | 0.00 | 10 | 994.6 |
| 20260508003504 | 30 | 329 | 1.6 | 19.3 | 0.00 | 0.00 | 0.00 | 10 | 994.6 |
| 20260508003005 | 30 | 280 | 1.6 | 9.7 | 0.00 | 0.00 | 0.00 | 10 | 994.6 |
| 20260508002504 | 30 | 289 | 1.6 | 9.7 | 0.00 | 0.00 | 0.00 | 10 | 994.6 |
| 20260508002004 | 30 | 283 | 1.6 | 14.5 | 0.00 | 0.00 | 0.00 | 10 | 994.6 |
| 20260508001506 | 30 | 282 | 1.6 | 14.5 | 0.00 | 0.00 | 0.00 | 10 | 994.6 |
| 20260508001005 | 30 | 295 | 3.2 | 12.9 | 0.00 | 0.00 | 0.00 | 10 | 994.6 |
| 20260508000505 | 30 | 300 | 3.2 | 19.3 | 0.00 | 0.00 | 0.00 | 10 | 994.6 |
| 20260508000005 | 30 | 289 | 1.6 | 19.3 | 0.00 | 0.00 | 0.00 | 10 | 994.6 |
| 20260507235505 | 30 | 233 | 3.2 | 17.7 | 0.00 | 0.00 | 0.00 | 10 | 994.7 |
| 20260507234504 | 30 | 282 | 1.6 | 22.5 | 0.00 | 0.00 | 0.00 | 10 | 994.8 |
| 20260507234004 | 30 | 301 | 1.6 | 22.5 | 0.00 | 0.00 | 0.00 | 10 | 994.8 |
| 20260507233005 | 30 | 290 | 1.6 | 19.3 | 0.00 | 0.00 | 0.00 | 10 | 994.9 |
| 20260507232505 | 30 | 302 | 4.8 | 24.1 | 0.00 | 0.00 | 0.00 | 10 | 995.0 |
| 20260507231505 | 30 | 305 | 4.8 | 22.5 | 0.00 | 0.00 | 0.00 | 11 | 995.0 |
| 20260507231005 | 30 | 320 | 4.8 | 20.9 | 0.00 | 0.00 | 0.00 | 11 | 995.0 |
| 20260507230505 | 30 | 314 | 9.7 | 29.0 | 0.00 | 0.00 | 0.00 | 11 | 995.0 |
| 20260507230005 | 30 | 310 | 11.3 | 29.0 | 0.00 | 0.00 | 0.00 | 11 | 995.0 |
| 20260507225505 | 30 | 304 | 6.4 | 29.0 | 0.00 | 0.00 | 0.00 | 11 | 995.0 |
| 20260507225005 | 30 | 261 | 3.2 | 17.7 | 0.00 | 0.00 | 0.00 | 11 | 995.0 |
| 20260507224004 | 30 | 266 | 3.2 | 19.3 | 0.00 | 0.00 | 0.00 | 12 | 995.1 |
| 20260507223505 | 30 | 309 | 8.0 | 25.7 | 0.00 | 0.00 | 0.00 | 12 | 995.1 |
| 20260507223004 | 30 | 308 | 11.3 | 25.7 | 0.00 | 0.00 | 0.00 | 12 | 995.1 |
| 20260507222004 | 31 | 229 | 1.6 | 24.1 | 0.00 | 0.00 | 0.00 | 12 | 995.1 |
| 20260507221504 | 31 | 277 | 1.6 | 9.7 | 0.00 | 0.00 | 0.00 | 12 | 995.3 |
| 20260507221004 | 31 | 296 | 1.6 | 11.3 | 0.00 | 0.00 | 0.00 | 12 | 995.4 |
| 20260507220504 | 30 | 299 | 4.8 | 17.7 | 0.00 | 0.00 | 0.00 | 11 | 995.4 |
| 20260507220004 | 30 | 301 | 6.4 | 22.5 | 0.00 | 0.00 | 0.00 | 12 | 995.5 |
| 20260507215505 | 30 | 297 | 6.4 | 24.1 | 0.00 | 0.00 | 0.00 | 13 | 995.5 |
| 20260507215005 | 30 | 281 | 6.4 | 24.1 | 0.00 | 0.00 | 0.00 | 13 | 995.5 |
| 20260507214505 | 30 | 253 | 4.8 | 16.1 | 0.00 | 0.00 | 0.00 | 13 | 995.5 |
| 20260507214004 | 30 | 276 | 4.8 | 25.7 | 0.00 | 0.00 | 0.00 | 13 | 995.6 |
| 20260507213504 | 30 | 307 | 6.4 | 25.7 | 0.00 | 0.00 | 0.00 | 13 | 995.6 |
| 20260507213005 | 30 | 305 | 8.0 | 29.0 | 0.00 | 0.00 | 0.00 | 14 | 995.6 |
| 20260507212505 | 30 | 296 | 6.4 | 29.0 | 0.00 | 0.00 | 0.00 | 14 | 995.6 |
| 20260507212005 | 30 | 300 | 8.0 | 25.7 | 0.00 | 0.00 | 0.00 | 15 | 995.6 |
| 20260507211505 | 29 | 307 | 11.3 | 25.7 | 0.00 | 0.00 | 0.00 | 15 | 995.6 |
| 20260507211005 | 30 | 279 | 9.7 | 25.7 | 0.00 | 0.00 | 0.00 | 15 | 995.7 |
| 20260507210505 | 30 | 231 | 6.4 | 24.1 | 0.00 | 0.00 | 0.00 | 15 | 995.7 |
| 20260507210005 | 30 | 259 | 4.8 | 30.6 | 0.00 | 0.00 | 0.00 | 14 | 995.7 |
| 20260507205504 | 30 | 258 | 6.4 | 30.6 | 0.00 | 0.00 | 0.00 | 13 | 995.9 |
| 20260507204505 | 29 | 230 | 8.0 | 22.5 | 0.00 | 0.00 | 0.00 | 14 | 996.1 |
| 20260507204004 | 30 | 248 | 4.8 | 22.5 | 0.00 | 0.00 | 0.00 | 13 | 996.1 |
| 20260507203505 | 30 | 285 | 4.8 | 20.9 | 0.00 | 0.00 | 0.00 | 14 | 996.1 |
| 20260507203004 | 30 | 293 | 4.8 | 20.9 | 0.00 | 0.00 | 0.00 | 14 | 996.1 |
| 20260507202505 | 30 | 285 | 4.8 | 19.3 | 0.00 | 0.00 | 0.00 | 14 | 996.2 |
| 20260507202005 | 30 | 291 | 3.2 | 22.5 | 0.00 | 0.00 | 0.00 | 14 | 996.3 |
| 20260507201504 | 29 | 258 | 3.2 | 22.5 | 0.00 | 0.00 | 0.00 | 15 | 996.2 |
| 20260507201005 | 29 | 222 | 6.4 | 29.0 | 0.00 | 0.00 | 0.00 | 16 | 996.5 |
| 20260507200505 | 29 | 234 | 6.4 | 29.0 | 0.00 | 0.00 | 0.00 | 15 | 996.4 |
| 20260507200005 | 29 | 243 | 4.8 | 22.5 | 0.00 | 0.00 | 0.00 | 15 | 996.5 |
| 20260507194505 | 28 | 248 | 8.0 | 30.6 | 0.00 | 0.00 | 0.00 | 17 | 996.6 |
| 20260507194004 | 28 | 263 | 8.0 | 25.7 | 0.00 | 0.00 | 0.00 | 17 | 996.7 |
| 20260507193504 | 28 | 308 | 8.0 | 25.7 | 0.00 | 0.00 | 0.00 | 18 | 996.7 |
| 20260507193004 | 28 | 288 | 6.4 | 20.9 | 0.00 | 0.00 | 0.00 | 17 | 996.7 |
| 20260507192504 | 28 | 279 | 6.4 | 24.1 | 0.00 | 0.00 | 0.00 | 18 | 996.9 |
| 20260507192004 | 28 | 290 | 9.7 | 24.1 | 0.00 | 0.00 | 0.00 | 18 | 996.9 |
| 20260507191005 | 28 | 258 | 6.4 | 27.4 | 0.00 | 0.00 | 0.00 | 18 | 997.1 |
| 20260507190505 | 28 | 252 | 8.0 | 25.7 | 0.00 | 0.00 | 0.00 | 18 | 997.1 |
| 20260507190005 | 28 | 272 | 6.4 | 24.1 | 0.00 | 0.00 | 0.00 | 19 | 997.0 |
| 20260507185505 | 28 | 278 | 6.4 | 20.9 | 0.00 | 0.00 | 0.00 | 20 | 997.2 |
| 20260507185005 | 28 | 286 | 6.4 | 20.9 | 0.00 | 0.00 | 0.00 | 19 | 997.2 |
| 20260507184505 | 27 | 271 | 4.8 | 20.9 | 0.00 | 0.00 | 0.00 | 20 | 997.2 |
| 20260507184005 | 27 | 258 | 6.4 | 24.1 | 0.00 | 0.00 | 0.00 | 21 | 997.2 |
| 20260507183504 | 27 | 282 | 6.4 | 24.1 | 0.00 | 0.00 | 0.00 | 20 | 997.2 |
| 20260507183004 | 27 | 253 | 8.0 | 25.7 | 0.00 | 0.00 | 0.00 | 22 | 997.2 |
| 20260507182005 | 27 | 243 | 6.4 | 22.5 | 0.00 | 0.00 | 0.00 | 21 | 997.3 |
| 20260507181505 | 27 | 250 | 6.4 | 22.5 | 0.00 | 0.00 | 0.00 | 21 | 997.3 |
| 20260507181005 | 27 | 269 | 3.2 | 17.7 | 0.00 | 0.00 | 0.00 | 21 | 997.3 |
| 20260507180004 | 27 | 241 | 4.8 | 17.7 | 0.00 | 0.00 | 0.00 | 22 | 997.5 |
| 20260507175504 | 27 | 241 | 4.8 | 22.5 | 0.00 | 0.00 | 0.00 | 21 | 997.6 |
| 20260507175004 | 27 | 275 | 4.8 | 22.5 | 0.00 | 0.00 | 0.00 | 22 | 997.6 |
| 20260507174505 | 27 | 271 | 3.2 | 11.3 | 0.00 | 0.00 | 0.00 | 22 | 997.6 |
| 20260507173504 | 27 | 272 | 4.8 | 19.3 | 0.00 | 0.00 | 0.00 | 23 | 997.6 |
| 20260507173005 | 27 | 281 | 3.2 | 19.3 | 0.00 | 0.00 | 0.00 | 23 | 997.6 |
| 20260507172504 | 27 | 252 | 1.6 | 14.5 | 0.00 | 0.00 | 0.00 | 23 | 997.7 |
| 20260507172004 | 26 | 235 | 1.6 | 16.1 | 0.00 | 0.00 | 0.00 | 23 | 997.7 |
| 20260507171504 | 26 | 258 | 1.6 | 16.1 | 0.00 | 0.00 | 0.00 | 23 | 997.7 |
| 20260507171004 | 26 | 250 | 3.2 | 17.7 | 0.00 | 0.00 | 0.00 | 23 | 997.7 |
| 20260507170504 | 25 | 231 | 6.4 | 17.7 | 0.00 | 0.00 | 0.00 | 23 | 997.7 |
| 20260507170005 | 25 | 231 | 6.4 | 19.3 | 0.00 | 0.00 | 0.00 | 25 | 997.7 |
| 20260507165505 | 25 | 231 | 6.4 | 19.3 | 0.00 | 0.00 | 0.00 | 26 | 997.7 |
| 20260507165005 | 25 | 224 | 4.8 | 17.7 | 0.00 | 0.00 | 0.00 | 27 | 997.7 |
| 20260507164504 | 25 | 229 | 4.8 | 17.7 | 0.00 | 0.00 | 0.00 | 26 | 997.7 |
| 20260507164005 | 25 | 232 | 3.2 | 22.5 | 0.00 | 0.00 | 0.00 | 28 | 997.7 |
| 20260507163505 | 25 | 236 | 3.2 | 22.5 | 0.00 | 0.00 | 0.00 | 28 | 997.7 |
| 20260507163004 | 25 | 244 | 4.8 | 22.5 | 0.00 | 0.00 | 0.00 | 29 | 997.7 |
| 20260507162504 | 24 | 243 | 4.8 | 22.5 | 0.00 | 0.00 | 0.00 | 30 | 997.7 |
| 20260507161505 | 24 | 229 | 3.2 | 17.7 | 0.00 | 0.00 | 0.00 | 30 | 997.7 |
| 20260507161005 | 24 | 238 | 1.6 | 17.7 | 0.00 | 0.00 | 0.00 | 29 | 997.7 |
| 20260507160505 | 24 | 277 | 3.2 | 17.7 | 0.00 | 0.00 | 0.00 | 29 | 997.7 |
| 20260507160005 | 24 | 278 | 3.2 | 17.7 | 0.00 | 0.00 | 0.00 | 31 | 997.7 |
| 20260507155505 | 23 | 157 | 1.6 | 8.0 | 0.00 | 0.00 | 0.00 | 32 | 997.7 |
| 20260507155004 | 23 | 154 | 1.6 | 9.7 | 0.00 | 0.00 | 0.00 | 34 | 997.7 |
| 20260507154505 | 23 | 167 | 3.2 | 9.7 | 0.00 | 0.00 | 0.00 | 34 | 997.7 |
| 20260507153504 | 22 | 170 | 3.2 | 9.7 | 0.00 | 0.00 | 0.00 | 35 | 997.7 |
| 20260507153004 | 22 | 168 | 3.2 | 8.0 | 0.00 | 0.00 | 0.00 | 35 | 997.8 |
| 20260507152004 | 21 | 168 | 1.6 | 8.0 | 0.00 | 0.00 | 0.00 | 35 | 997.8 |
| 20260507151505 | 21 | 170 | 1.6 | 6.4 | 0.00 | 0.00 | 0.00 | 36 | 997.8 |
| 20260507151005 | 21 | 170 | 1.6 | 4.8 | 0.00 | 0.00 | 0.00 | 37 | 997.9 |
| 20260507150505 | 20 | 169 | 1.6 | 8.0 | 0.00 | 0.00 | 0.00 | 37 | 997.8 |
| 20260507150005 | 20 | 175 | 3.2 | 8.0 | 0.00 | 0.00 | 0.00 | 38 | 997.8 |
| 20260507145505 | 20 | 184 | 3.2 | 8.0 | 0.00 | 0.00 | 0.00 | 38 | 997.8 |
| 20260507145005 | 20 | 165 | 3.2 | 6.4 | 0.00 | 0.00 | 0.00 | 39 | 997.8 |
| 20260507143504 | 20 | 78 | 0.0 | 4.8 | 0.00 | 0.00 | 0.00 | 39 | 997.9 |
| 20260507142505 | 19 | 0 | 0.0 | 0.0 | 0.00 | 0.00 | 0.00 | 40 | 997.9 |
| 20260507142004 | 19 | 0 | 0.0 | 0.0 | 0.00 | 0.00 | 0.00 | 40 | 997.8 |
| 20260507141504 | 19 | 62 | 0.0 | 3.2 | 0.00 | 0.00 | 0.00 | 41 | 997.8 |
| 20260507141004 | 19 | 63 | 0.0 | 3.2 | 0.00 | 0.00 | 0.00 | 42 | 997.7 |
| 20260507140504 | 18 | 62 | 0.0 | 3.2 | 0.00 | 0.00 | 0.00 | 42 | 997.7 |
| 20260507140004 | 18 | 0 | 0.0 | 0.0 | 0.00 | 0.00 | 0.00 | 43 | 997.7 |
| 20260507135504 | 18 | 0 | 0.0 | 0.0 | 0.00 | 0.00 | 0.00 | 44 | 997.7 |
| 20260507135004 | 18 | 0 | 0.0 | 0.0 | 0.00 | 0.00 | 0.00 | 44 | 997.7 |
| 20260507134504 | 17 | 0 | 0.0 | 0.0 | 0.00 | 0.00 | 0.00 | 45 | 997.7 |
| 20260507134004 | 17 | 0 | 0.0 | 0.0 | 0.00 | 0.00 | 0.00 | 45 | 997.6 |
| 20260507133504 | 17 | 0 | 0.0 | 0.0 | 0.00 | 0.00 | 0.00 | 45 | 997.6 |
| 20260507133004 | 17 | 0 | 0.0 | 0.0 | 0.00 | 0.00 | 0.00 | 45 | 997.5 |
| 20260507132504 | 17 | 0 | 0.0 | 0.0 | 0.00 | 0.00 | 0.00 | 46 | 997.4 |
| 20260507131504 | 16 | 0 | 0.0 | 0.0 | 0.00 | 0.00 | 0.00 | 47 | 997.2 |
| 20260507131004 | 16 | 0 | 0.0 | 0.0 | 0.00 | 0.00 | 0.00 | 48 | 997.2 |
| 20260507130504 | 16 | 0 | 0.0 | 0.0 | 0.00 | 0.00 | 0.00 | 48 | 997.1 |
| 20260507130005 | 16 | 0 | 0.0 | 0.0 | 0.00 | 0.00 | 0.00 | 49 | 997.1 |
| 20260507125504 | 16 | 0 | 0.0 | 0.0 | 0.00 | 0.00 | 0.00 | 48 | 997.2 |
| 20260507125004 | 16 | 0 | 0.0 | 0.0 | 0.00 | 0.00 | 0.00 | 48 | 997.2 |
| 20260507123504 | 16 | 0 | 0.0 | 0.0 | 0.00 | 0.00 | 0.00 | 50 | 997.0 |
| 20260507123004 | 16 | 0 | 0.0 | 0.0 | 0.00 | 0.00 | 0.00 | 50 | 997.0 |
| 20260507122504 | 16 | 0 | 0.0 | 0.0 | 0.00 | 0.00 | 0.00 | 49 | 996.9 |
| 20260507122004 | 16 | 1 | 0.0 | 1.6 | 0.00 | 0.00 | 0.00 | 49 | 996.9 |
| 20260507121504 | 16 | 1 | 0.0 | 1.6 | 0.00 | 0.00 | 0.00 | 49 | 996.9 |
| 20260507121004 | 16 | 0 | 0.0 | 0.0 | 0.00 | 0.00 | 0.00 | 51 | 996.9 |
| 20260507120504 | 16 | 0 | 0.0 | 0.0 | 0.00 | 0.00 | 0.00 | 51 | 996.9 |
| 20260507120005 | 16 | 0 | 0.0 | 0.0 | 0.00 | 0.00 | 0.00 | 51 | 996.9 |
| 20260507115504 | 16 | 0 | 0.0 | 0.0 | 0.00 | 0.00 | 0.00 | 51 | 997.0 |
| 20260507115005 | 16 | 0 | 0.0 | 0.0 | 0.00 | 0.00 | 0.00 | 51 | 997.0 |
| 20260507114504 | 16 | 0 | 0.0 | 0.0 | 0.00 | 0.00 | 0.00 | 51 | 997.0 |
| 20260507114004 | 16 | 0 | 0.0 | 0.0 | 0.00 | 0.00 | 0.00 | 51 | 996.9 |
| 20260507113504 | 16 | 0 | 0.0 | 0.0 | 0.00 | 0.00 | 0.00 | 51 | 997.0 |
| 20260507113005 | 16 | 0 | 0.0 | 0.0 | 0.00 | 0.00 | 0.00 | 51 | 997.1 |
| 20260507112504 | 16 | 0 | 0.0 | 0.0 | 0.00 | 0.00 | 0.00 | 51 | 997.1 |
| 20260507112005 | 16 | 0 | 0.0 | 0.0 | 0.00 | 0.00 | 0.00 | 51 | 997.1 |
| 20260507111506 | 16 | 0 | 0.0 | 0.0 | 0.00 | 0.00 | 0.00 | 50 | 997.2 |
| 20260507111004 | 16 | 40 | 0.0 | 1.6 | 0.00 | 0.00 | 0.00 | 50 | 997.1 |
| 20260507110504 | 17 | 39 | 1.6 | 4.8 | 0.00 | 0.00 | 0.00 | 49 | 997.1 |
| 20260507110005 | 17 | 39 | 1.6 | 4.8 | 0.00 | 0.00 | 0.00 | 48 | 997.1 |
| 20260507105504 | 17 | 0 | 0.0 | 0.0 | 0.00 | 0.00 | 0.00 | 48 | 997.1 |
| 20260507105004 | 17 | 0 | 0.0 | 0.0 | 0.00 | 0.00 | 0.00 | 47 | 997.1 |
| 20260507104504 | 17 | 0 | 0.0 | 0.0 | 0.00 | 0.00 | 0.00 | 47 | 997.1 |
| 20260507104004 | 17 | 0 | 0.0 | 0.0 | 0.00 | 0.00 | 0.00 | 46 | 997.0 |
| 20260507103504 | 18 | 0 | 0.0 | 0.0 | 0.00 | 0.00 | 0.00 | 46 | 997.1 |
| 20260507102504 | 18 | 0 | 0.0 | 0.0 | 0.00 | 0.00 | 0.00 | 48 | 997.1 |
| 20260507101504 | 18 | 0 | 0.0 | 0.0 | 0.00 | 0.00 | 0.00 | 47 | 997.1 |
| 20260507101004 | 18 | 0 | 0.0 | 0.0 | 0.00 | 0.00 | 0.00 | 47 | 997.1 |
| 20260507100504 | 18 | 0 | 0.0 | 0.0 | 0.00 | 0.00 | 0.00 | 47 | 997.2 |
| 20260507095504 | 18 | 0 | 0.0 | 0.0 | 0.00 | 0.00 | 0.00 | 46 | 997.1 |
| 20260507095004 | 18 | 0 | 0.0 | 0.0 | 0.00 | 0.00 | 0.00 | 46 | 997.1 |
| 20260507094004 | 19 | 0 | 0.0 | 0.0 | 0.00 | 0.00 | 0.00 | 45 | 997.2 |
| 20260507093004 | 19 | 0 | 0.0 | 0.0 | 0.00 | 0.00 | 0.00 | 45 | 997.2 |
| 20260507092504 | 19 | 0 | 0.0 | 0.0 | 0.00 | 0.00 | 0.00 | 45 | 997.2 |
| 20260507091504 | 20 | 0 | 0.0 | 0.0 | 0.00 | 0.00 | 0.00 | 45 | 997.2 |
| 20260507090005 | 19 | 0 | 0.0 | 0.0 | 0.00 | 0.00 | 0.00 | 45 | 997.2 |
| 20260507085504 | 19 | 0 | 0.0 | 0.0 | 0.00 | 0.00 | 0.00 | 45 | 997.2 |
| 20260507084504 | 19 | 0 | 0.0 | 0.0 | 0.00 | 0.00 | 0.00 | 45 | 997.2 |
| 20260507084004 | 19 | 0 | 0.0 | 0.0 | 0.00 | 0.00 | 0.00 | 46 | 997.2 |
| 20260507083005 | 20 | 0 | 0.0 | 0.0 | 0.00 | 0.00 | 0.00 | 45 | 997.3 |
| 20260507082004 | 20 | 0 | 0.0 | 0.0 | 0.00 | 0.00 | 0.00 | 44 | 997.4 |
| 20260507081504 | 20 | 0 | 0.0 | 0.0 | 0.00 | 0.00 | 0.00 | 44 | 997.5 |
| 20260507080504 | 20 | 0 | 0.0 | 0.0 | 0.00 | 0.00 | 0.00 | 44 | 997.5 |
| 20260507080004 | 20 | 0 | 0.0 | 0.0 | 0.00 | 0.00 | 0.00 | 44 | 997.5 |
| 20260507075504 | 20 | 0 | 0.0 | 0.0 | 0.00 | 0.00 | 0.00 | 44 | 997.6 |
| 20260507075004 | 20 | 0 | 0.0 | 0.0 | 0.00 | 0.00 | 0.00 | 44 | 997.7 |
| 20260507074504 | 20 | 0 | 0.0 | 0.0 | 0.00 | 0.00 | 0.00 | 44 | 997.7 |
| 20260507074003 | 20 | 0 | 0.0 | 0.0 | 0.00 | 0.00 | 0.00 | 44 | 997.7 |
| 20260507073504 | 20 | 0 | 0.0 | 0.0 | 0.00 | 0.00 | 0.00 | 44 | 997.7 |
| 20260507073004 | 20 | 0 | 0.0 | 0.0 | 0.00 | 0.00 | 0.00 | 44 | 997.7 |
| 20260507072004 | 20 | 0 | 0.0 | 0.0 | 0.00 | 0.00 | 0.00 | 44 | 997.7 |
| 20260507071504 | 20 | 0 | 0.0 | 0.0 | 0.00 | 0.00 | 0.00 | 43 | 997.7 |
| 20260507070504 | 20 | 0 | 0.0 | 0.0 | 0.00 | 0.00 | 0.00 | 43 | 997.7 |
| 20260507070009 | 20 | 0 | 0.0 | 0.0 | 0.00 | 0.00 | 0.00 | 43 | 997.7 |
| 20260507065504 | 20 | 0 | 0.0 | 0.0 | 0.00 | 0.00 | 0.00 | 43 | 997.7 |
| 20260507065004 | 20 | 0 | 0.0 | 0.0 | 0.00 | 0.00 | 0.00 | 42 | 997.7 |
| 20260507064504 | 21 | 0 | 0.0 | 0.0 | 0.00 | 0.00 | 0.00 | 42 | 997.8 |
| 20260507064004 | 21 | 0 | 0.0 | 0.0 | 0.00 | 0.00 | 0.00 | 41 | 997.7 |
| 20260507063504 | 21 | 0 | 0.0 | 0.0 | 0.00 | 0.00 | 0.00 | 41 | 997.7 |
| 20260507063005 | 21 | 0 | 0.0 | 0.0 | 0.00 | 0.00 | 0.00 | 40 | 997.7 |
| 20260507062504 | 21 | 0 | 0.0 | 0.0 | 0.00 | 0.00 | 0.00 | 40 | 997.7 |
| 20260507061503 | 21 | 0 | 0.0 | 0.0 | 0.00 | 0.00 | 0.00 | 40 | 997.7 |
| 20260507061003 | 21 | 0 | 0.0 | 0.0 | 0.00 | 0.00 | 0.00 | 40 | 997.7 |
| 20260507060504 | 21 | 343 | 1.6 | 12.9 | 0.00 | 0.00 | 0.00 | 40 | 997.7 |
| 20260507060005 | 21 | 24 | 3.2 | 16.1 | 0.00 | 0.00 | 0.00 | 40 | 997.7 |
| 20260507055504 | 21 | 43 | 1.6 | 16.1 | 0.00 | 0.00 | 0.00 | 40 | 997.7 |
| 20260507055004 | 21 | 310 | 1.6 | 16.1 | 0.00 | 0.00 | 0.00 | 40 | 997.7 |
| 20260507054504 | 21 | 295 | 3.2 | 16.1 | 0.00 | 0.00 | 0.00 | 40 | 997.6 |
| 20260507054004 | 21 | 295 | 6.4 | 24.1 | 0.00 | 0.00 | 0.00 | 40 | 997.5 |
| 20260507053503 | 21 | 300 | 11.3 | 25.7 | 0.00 | 0.00 | 0.00 | 40 | 997.4 |
| 20260507053004 | 21 | 300 | 12.9 | 29.0 | 0.00 | 0.00 | 0.00 | 40 | 997.4 |
| 20260507052504 | 21 | 303 | 9.7 | 29.0 | 0.00 | 0.00 | 0.00 | 40 | 997.4 |
| 20260507052004 | 21 | 310 | 11.3 | 29.0 | 0.00 | 0.00 | 0.00 | 40 | 997.3 |
| 20260507051504 | 22 | 311 | 16.1 | 33.8 | 0.00 | 0.00 | 0.00 | 40 | 997.4 |
| 20260507051004 | 22 | 310 | 12.9 | 33.8 | 0.00 | 0.00 | 0.00 | 40 | 997.3 |
| 20260507050504 | 22 | 314 | 12.9 | 30.6 | 0.00 | 0.00 | 0.00 | 40 | 997.5 |
| 20260507050005 | 22 | 318 | 16.1 | 30.6 | 0.00 | 0.00 | 0.00 | 40 | 997.3 |
| 20260507045505 | 22 | 311 | 14.5 | 29.0 | 0.00 | 0.00 | 0.00 | 39 | 997.2 |
| 20260507045004 | 22 | 303 | 12.9 | 29.0 | 0.00 | 0.00 | 0.00 | 38 | 997.2 |